Location: Canet
(43.3261°N, 5.3723°E)
Time: 18:26:05
(UTC+00:00)

USA 229 DEB - Pass Details

Date: 24 January 2021
Orbit: 965 x 1247 km, 63.4° (Epoch: 06 March)

Event Time Altitude Azimuth Distance (km) Brightness Sun altitude
Rises 18:32:26 0° 324° (NW) 3,957 7.1 -20.4°
Reaches altitude 10° 18:35:05 10° 326° (NW) 3,035 6.4 -20.8°
Maximum altitude 18:42:24 75° 52° (NE) 1,233 3.8 -22.2°
Enters shadow 18:47:27 24° 134° (SE) 2,299 5.1 -23.1°
